Temp
23 23 23 23 23 22 22 22 21 21 21 22 22 21 21 21 21 21 22 23 23 22 22 21 21 21 20 19 19 19 20 19 19 19 19 19 19 19 19 19 19 19 19
23 23 23 22 22 22 22 21 21 21 21 21 21 21 21 21 21 21 22 22 22 22 22 22 21 21 21 20 20 20 20 20 19 19 19 20 19 19 19 19 19 19 19
23 23 23 23 22 22 21 21 21 20 20 20 21 21 21 21 21 21 21 21 22 22 22 22 22 21 21 21 21 20 20 20 20 20 20 19 19 19 19 19 20 20 19
23 23 23 23 22 22 21 21 20 21 21 20 20 20 20 21 20 20 21 21 21 21 22 22 22 22 21 21 21 21 20 20 20 20 20 20 20 20 20 20 20 20 20
23 23 23 22 22 21 21 20 20 20 20 20 20 20 21 20 20 21 21 21 21 21 22 22 22 22 22 21 21 21 21 20 20 21 21 20 20 20 20 20 20 20 20
23 23 23 22 21 21 20 20 20 20 20 19 20 20 20 20 21 21 21 21 21 21 21 22 22 22 21 21 21 21 21 20 21 21 20 21 20 20 20 20 20 20 21
22 23 22 22 21 21 20 20 20 20 20 19 19 20 21 20 21 21 20 20 21 21 20 20 21 21 21 21 21 21 21 21 21 21 21 20 20 21 21 20 20 20 21
22 22 22 21 21 20 20 20 20 20 19 19 18 16 17 20 20 20 20 20 21 21 21 20 20 20 20 20 21 21 21 21 21 21 21 21 21 20 21 21 21 20 21
22 22 21 21 21 21 21 20 20 19 19 19 18 18 17 18 16 20 20 20 20 20 20 20 20 20 20 20 20 20 20 20 20 21 21 21 21 21 21 21 20 21 21
22 22 22 21 20 20 20 20 19 19 19 19 18 18 18 17 17 17 20 20 20 20 20 20 19 19 19 19 19 20 19 20 20 20 20 20 20 20 20 21 21 20 20
21 22 21 21 21 20 20 20 19 19 19 18 18 18 18 17 16 15 16 17 20 20 20 20 19 19 19 19 19 19 19 19 19 18 19 19 20 20 20 20 21 21 20
22 22 21 21 21 20 20 20 19 19 19 19 18 18 18 18 17 16 16 15 15 19 19 19 19 19 18 18 18 18 18 18 18 18 18 18 19 19 19 20 20 20 21
22 22 21 21 20 20 20 20 20 20 20 19 19 19 19 19 18 17 16 15 15 17 18 18 19 18 18 18 18 18 18 18 18 18 18 18 18 19 19 19 20 20 20
22 22 21 21 21 21 20 20 20 20 20 20 19 19 19 19 18 18 17 15 14 13 15 17 18 18 17 17 17 17 17 17 18 18 18 18 18 18 19 19 19 20 20
22 21 21 21 21 20 20 20 20 20 20 20 20 20 19 19 19 18 17 17 16 15 15 17 17 17 17 17 17 17 17 17 17 17 18 18 17 17 18 18 19 19 20
22 21 21 20 20 20 20 20 20 20 20 20 20 20 19 19 19 18 18 17 16 15 14 15 16 16 17 17 17 17 16 17 17 18 17 17 17 17 17 17 19 19 19
22 22 21 21 20 20 20 20 20 20 20 20 20 19 19 19 19 18 17 17 16 15 13 15 14 16 16 16 16 17 16 16 16 17 17 17 16 16 16 16 17 18 19
22 22 21 21 20 20 20 20 20 20 20 20 20 20 20 19 18 18 17 17 16 16 14 14 15 14 15 16 16 16 16 15 15 15 15 14 14 15 16 16 17 17 18
22 21 21 21 20 20 20 20 20 21 20 20 20 20 20 19 19 19 18 17 17 16 15 13 13 14 13 14 14 15 15 14 14 14 14 14 14 14 14 15 16 17 18
22 22 21 21 21 21 21 21 21 21 21 21 20 20 20 19 19 19 18 18 18 16 15 13 13 13 13 14 13 13 13 14 13 14 14 13 14 14 14 15 16 17 18
22 22 21 21 21 21 21 21 21 21 21 21 21 20 20 19 19 18 18 18 17 16 15 13 13 14 14 14 14 14 13 13 13 13 14 14 14 14 14 14 15 17 18
22 22 21 21 21 21 21 21 21 21 21 21 20 20 20 19 19 18 17 17 17 16 15 13 14 13 14 13 13 12 13 13 14 14 14 13 13 13 13 14 15 16 18
22 22 21 21 21 21 21 21 21 20 20 20 20 19 19 19 18 18 18 17 17 16 15 14 13 13 13 13 12 12 12 12 12 13 12 12 12 13 13 14 15 15 16
21 21 21 21 21 21 22 21 20 21 20 20 19 18 18 18 18 16 16 16 16 16 15 14 13 13 13 12 11 11 11 11 11 11 12 12 12 13 13 13 14 15 16
20 20 21 21 21 22 22 21 20 20 19 19 19 17 17 17 16 16 15 14 15 15 15 14 13 13 13 13 13 11 11 11 11 12 12 12 12 12 13 14 14 15 16
19 18 18 18 17 16 20 19 19 19 19 18 18 17 16 15 15 15 14 13 13 14 13 13 13 11 10 11 13 11 11 11 11 11 12 12 12 12 13 14 14 14 16
Height
851 852 852 852 852 852 852 852 852 852 851 850 848 847 846 845 844 842 842 842 842 843 844 844 846 848 851 853 854 856 857 859 860 861 863 863 864 865 866 867 868 869 870
849 850 851 851 851 851 851 851 851 850 850 849 848 846 844 843 842 841 840 839 840 841 842 843 844 845 848 849 851 853 854 855 857 859 860 861 862 862 864 865 866 867 868
848 848 849 850 851 850 850 850 849 849 848 847 846 844 842 841 840 839 838 838 838 839 840 841 842 843 844 845 847 849 850 852 853 855 856 858 859 860 861 862 863 864 866
845 846 847 849 849 849 848 847 848 847 847 845 844 843 841 838 838 837 836 836 836 836 836 838 839 840 841 841 843 844 846 847 849 851 852 854 855 856 857 859 860 861 863
843 844 845 846 847 847 846 846 846 846 845 844 842 841 839 838 836 836 835 834 834 834 834 834 835 837 837 839 839 841 842 844 845 847 849 850 851 852 853 855 856 857 859
842 842 843 843 844 844 844 844 845 845 845 844 841 839 837 836 837 835 834 834 833 832 831 830 831 832 834 835 836 837 839 840 840 842 844 846 846 847 849 850 851 853 855
839 840 841 841 842 843 843 843 843 844 843 842 840 837 836 835 835 835 835 834 833 832 830 829 829 830 830 831 832 833 833 835 836 838 839 840 841 842 844 846 847 848 850
837 838 839 840 841 841 842 842 841 841 842 841 841 840 839 837 835 836 835 834 833 831 830 829 829 828 827 827 827 828 829 830 831 832 833 833 835 837 838 840 841 843 844
835 836 838 839 839 840 841 841 840 840 840 840 841 841 841 842 839 835 835 834 833 832 830 829 828 827 826 825 825 824 824 825 825 827 828 829 830 830 832 833 835 836 838
832 834 836 838 838 839 839 839 839 840 840 840 841 840 840 841 842 840 835 834 833 831 830 829 828 827 826 825 823 822 821 820 821 821 821 823 824 825 825 827 828 829 831
830 832 833 835 836 837 838 838 838 839 839 840 840 840 839 840 840 841 839 834 832 832 831 829 828 827 826 824 822 820 818 817 816 816 816 816 817 818 819 820 821 822 824
827 829 831 833 834 835 835 836 837 837 838 838 838 838 838 838 838 839 838 834 833 830 830 830 828 826 825 823 821 818 816 814 812 811 810 810 810 810 811 812 813 815 816
825 827 828 831 832 832 833 834 835 836 836 835 836 836 836 836 836 835 837 836 834 829 827 827 827 825 824 821 819 817 814 811 809 806 804 803 803 803 803 804 805 807 809
822 824 826 829 830 831 832 833 833 833 833 833 833 834 833 833 833 833 833 832 832 831 826 824 823 822 822 819 816 813 811 807 805 802 798 796 795 795 795 795 796 798 800
819 822 823 826 828 830 830 831 831 831 831 831 831 831 831 831 831 829 828 828 829 830 825 821 820 818 817 815 813 809 806 803 800 796 793 790 787 786 786 787 787 788 790
815 818 821 823 826 827 827 828 829 829 828 828 829 828 827 827 826 826 825 825 824 824 822 817 815 813 811 810 807 804 802 798 794 791 787 783 780 778 777 777 778 778 780
810 813 816 819 822 825 825 825 825 826 826 826 826 825 823 823 822 822 822 821 819 819 820 813 811 808 805 803 800 798 796 791 787 783 781 777 773 770 767 766 767 768 769
806 809 812 814 817 819 820 821 822 822 823 822 821 820 820 820 819 819 819 818 815 812 812 809 806 803 800 797 794 790 788 786 781 777 772 768 765 761 758 756 756 756 758
801 805 809 810 812 813 815 816 817 817 817 817 816 815 814 814 813 813 811 811 810 808 807 805 801 798 795 792 788 784 780 777 774 769 766 761 755 751 748 745 744 744 746
800 800 802 805 807 809 809 809 811 811 812 811 811 811 810 810 808 807 807 806 806 804 803 800 796 792 791 786 783 779 773 771 767 763 757 751 745 741 736 733 730 731 733
796 798 798 801 804 805 805 805 807 807 807 806 804 805 805 804 803 802 801 799 799 798 797 794 790 787 784 781 777 773 768 763 758 756 747 741 736 730 726 721 718 717 720
791 791 794 798 800 801 800 801 803 803 802 801 801 800 800 801 797 796 795 794 793 791 791 789 784 780 777 775 772 768 763 757 747 751 740 730 730 719 715 712 708 708 707
783 782 787 793 794 795 794 799 799 799 798 798 795 794 795 794 793 791 789 789 788 787 786 785 781 775 772 768 766 763 760 754 746 738 735 714 717 706 702 698 695 695 696
778 779 784 787 788 789 788 793 795 793 792 791 790 789 788 789 788 787 784 782 782 782 782 780 777 772 767 762 761 757 752 746 737 730 725 706 701 692 689 685 682 682 684
774 778 781 783 784 784 783 785 788 789 787 784 785 786 784 784 783 781 778 779 778 776 777 774 770 768 763 757 754 751 743 738 725 715 709 698 688 680 676 671 670 669 672
771 777 779 780 782 787 784 781 782 782 781 779 780 781 781 781 778 776 775 775 774 772 771 765 761 759 756 751 747 744 738 730 719 698 693 685 674 671 662 656 655 657 660
Wind_Speed
8 5 4 5 6 6 6 8 8 8 10 12 12 13 12 11 10 9 9 10 10 13 12 14 14 15 16 16 16 16 16 16 16 16 16 14 14 14 13 12 12 11 11
12 9 8 8 8 8 9 10 10 11 11 12 11 10 11 11 11 11 9 10 11 13 15 14 15 16 17 17 17 18 17 19 18 18 17 17 16 14 13 14 13 12 11
12 11 10 10 8 8 9 10 10 11 10 8 8 9 12 12 11 11 10 9 9 11 13 15 15 16 17 18 18 19 20 20 21 19 19 19 19 17 18 16 14 13 12
13 12 12 11 9 8 9 9 8 8 8 10 12 13 12 11 9 9 9 11 11 11 14 13 15 16 17 19 20 21 22 21 21 22 23 21 19 19 19 18 17 16 15
12 12 13 12 9 9 9 7 6 7 10 11 13 14 13 11 9 7 8 9 9 12 14 15 13 16 18 19 20 21 22 23 24 23 23 24 23 21 21 21 20 19 18
13 12 11 8 8 7 5 5 6 8 10 11 13 14 13 6 11 6 10 10 9 7 8 13 13 11 16 18 19 20 20 22 24 25 25 26 26 25 25 24 22 21 20
10 10 7 6 5 5 6 6 7 7 8 7 8 13 5 1 9 9 7 9 10 11 10 5 5 8 11 12 15 18 19 21 23 24 25 27 26 27 29 28 26 25 23
12 8 6 6 6 6 6 7 7 6 4 4 2 2 3 2 3 8 9 10 15 11 9 7 5 6 7 8 11 13 15 19 21 24 25 25 27 27 28 29 29 28 27
10 7 6 7 5 6 6 5 6 5 4 3 2 1 1 1 5 3 4 8 17 15 14 10 9 9 9 9 10 11 12 15 19 22 24 27 28 28 28 29 29 30 30
11 8 7 6 7 7 6 7 4 4 5 3 2 2 2 1 1 3 4 7 15 15 15 15 14 11 11 12 12 13 13 13 14 18 21 26 27 30 32 31 30 31 31
13 11 11 9 9 9 8 5 5 5 6 4 3 3 3 2 2 2 3 7 13 12 12 15 13 12 14 18 19 17 15 15 16 17 18 20 24 30 33 34 34 31 31
15 15 15 13 9 11 8 6 6 6 6 6 6 5 5 4 4 4 3 3 5 7 15 16 13 11 15 20 22 21 19 18 18 19 21 22 22 23 28 34 35 34 31
17 15 15 15 12 9 8 6 5 6 6 7 7 7 8 8 7 7 6 5 3 6 5 10 14 11 16 20 23 23 23 23 22 22 22 24 25 25 25 27 32 36 35
17 14 14 12 9 8 9 6 6 8 10 7 9 11 12 12 11 11 9 7 2 3 5 8 14 11 18 21 24 25 28 27 27 27 26 25 27 28 27 28 29 32 37
16 15 14 12 13 12 11 10 7 7 6 9 10 12 15 16 15 15 15 13 7 2 3 9 7 15 22 25 25 28 29 30 31 30 27 26 26 29 31 30 31 33 35
19 18 15 14 14 14 13 12 11 10 11 12 15 15 16 17 19 18 19 17 15 12 4 8 15 25 27 28 28 29 29 29 29 30 32 32 30 29 31 33 33 33 34
20 19 18 17 17 16 14 14 13 12 14 15 15 16 17 17 18 19 20 20 19 18 10 19 18 25 30 31 32 29 29 32 33 34 34 36 35 33 31 33 34 35 35
22 20 20 19 19 18 16 15 12 12 14 14 14 14 17 16 17 17 19 23 24 25 20 19 21 18 26 34 35 33 32 33 33 34 35 36 38 36 32 33 35 36 36
22 21 20 20 19 19 16 13 13 13 15 16 16 17 17 15 17 16 17 21 25 27 28 19 23 20 23 29 30 34 34 35 31 29 32 35 36 36 37 36 36 37 39
22 23 22 21 19 17 15 14 14 16 18 19 18 18 16 15 16 17 19 21 24 25 25 21 20 23 21 24 23 24 26 26 27 29 35 35 36 39 40 37 36 39 38
27 24 22 22 20 18 17 16 17 18 19 19 17 17 16 15 16 18 20 21 22 23 24 17 18 20 21 20 21 23 24 27 29 31 34 35 32 31 33 33 32 36 40
31 29 26 24 21 20 18 19 20 21 21 20 19 17 17 18 19 18 17 20 23 24 25 18 18 18 25 23 23 22 24 26 15 29 32 39 35 36 33 35 37 34 37
32 31 28 26 24 21 16 22 21 20 21 21 19 20 20 20 18 16 19 21 21 21 21 20 17 22 23 29 25 25 24 28 33 40 38 45 34 37 34 35 37 36 37
31 26 26 27 25 23 17 22 20 21 20 21 22 20 18 20 19 18 19 21 19 17 19 19 19 25 28 33 29 29 32 32 38 38 38 30 37 36 35 35 36 36 35
26 24 23 24 24 24 22 22 16 22 20 19 18 18 16 17 17 17 17 17 18 18 19 21 23 25 26 27 28 27 27 26 26 37 37 33 35 36 34 34 33 35 38
12 10 6 3 13 30 29 20 20 18 18 15 16 16 14 14 15 16 14 12 13 16 21 26 27 26 23 25 24 25 27 28 32 32 34 29 30 27 10 28 36 34 33
Wind_Direction
256 257 241 275 294 302 286 301 313 320 328 328 321 314 317 315 305 300 296 276 269 254 260 245 235 224 225 221 223 227 235 227 225 223 224 224 223 227 228 233 238 238 237
264 264 254 269 279 284 290 295 306 313 322 327 329 324 320 311 307 297 297 291 265 257 262 266 246 231 226 229 228 230 226 230 232 229 228 232 238 237 238 238 241 240 242
252 259 263 267 274 284 297 298 301 311 320 324 330 329 320 310 303 303 298 294 277 270 269 263 256 246 235 228 233 234 237 233 235 242 239 237 239 237 240 242 240 243 245
252 256 263 267 265 283 293 294 300 310 321 331 332 332 328 315 307 303 299 291 290 284 274 274 262 260 253 245 237 236 237 241 239 241 246 248 248 246 245 243 243 246 248
244 259 261 264 267 281 288 289 293 308 317 326 326 327 331 325 323 325 317 306 303 284 276 278 271 264 261 255 251 246 244 242 243 244 244 249 252 251 250 248 248 249 251
257 268 274 256 261 268 275 285 292 303 308 320 322 325 331 17 54 30 54 46 33 358 291 272 269 271 265 268 265 258 258 256 252 248 246 248 251 253 253 252 251 252 253
256 271 260 258 242 248 276 283 293 302 316 325 327 334 6 52 49 58 44 38 25 23 28 0 306 286 278 278 273 269 266 262 261 257 253 252 252 253 253 254 254 254 253
244 232 233 231 254 268 274 288 286 286 298 308 320 353 355 354 313 47 55 43 20 18 12 10 356 333 319 305 282 270 271 268 266 263 263 259 255 254 256 257 256 256 256
208 217 238 263 254 259 275 279 281 265 264 261 303 228 30 315 334 347 6 22 15 21 20 9 1 349 337 319 307 298 286 273 267 268 267 264 263 259 256 256 258 258 257
207 221 232 250 239 245 261 282 259 254 239 236 220 182 279 249 325 325 333 347 4 19 30 31 32 20 13 1 339 317 307 307 291 279 269 267 267 265 263 261 259 260 259
208 219 216 220 223 238 261 245 248 248 249 245 219 228 251 281 207 169 281 316 344 8 13 16 15 24 15 6 359 349 334 310 298 292 287 277 270 267 265 262 262 260 257
212 215 218 218 227 241 243 233 241 254 251 243 238 239 219 201 210 230 266 288 299 328 342 353 356 2 0 2 360 353 343 328 318 303 288 283 280 274 267 261 257 257 256
215 223 216 211 220 225 203 214 248 255 245 244 250 248 237 242 246 229 227 270 300 312 317 333 341 338 345 342 349 352 350 345 331 316 304 287 279 277 268 268 259 254 254
218 214 195 202 215 213 206 241 268 264 245 256 254 255 256 252 255 250 232 205 251 285 299 304 318 316 333 334 337 338 338 340 337 331 315 302 284 275 271 269 264 260 255
217 204 202 215 218 221 233 245 265 275 276 269 276 267 263 266 266 263 254 253 212 263 277 302 283 304 318 324 329 330 334 332 331 332 323 310 298 280 271 268 265 260 257
209 212 216 218 225 234 241 248 262 274 276 279 285 283 278 269 264 265 258 257 249 243 273 277 284 302 310 315 321 324 325 329 330 333 332 325 309 293 277 269 264 261 255
213 219 221 219 229 237 243 253 261 270 277 286 286 284 284 282 272 268 260 256 257 253 254 290 287 302 304 309 315 321 321 323 325 329 326 322 313 302 285 273 264 260 256
216 220 216 224 233 239 245 253 262 271 278 280 282 280 283 288 284 280 271 266 262 264 255 271 289 289 297 305 307 313 315 318 318 318 319 314 309 300 292 278 266 259 255
213 213 219 226 232 235 237 242 255 263 272 279 279 280 283 285 288 283 282 276 275 275 272 262 279 286 289 297 302 306 308 310 309 310 308 302 300 293 288 284 271 259 253
213 214 221 228 233 232 232 239 254 268 275 274 275 274 281 284 286 286 286 283 284 283 281 272 275 282 284 288 289 290 298 302 299 306 305 296 297 292 292 284 274 258 250
223 225 226 229 232 234 242 252 262 271 272 268 268 270 277 286 291 291 285 283 283 284 280 269 276 283 285 286 286 294 293 301 300 305 301 296 294 287 282 278 279 258 250
229 230 232 232 233 239 247 261 269 273 271 267 265 272 278 283 290 289 280 278 283 281 277 271 274 276 285 286 290 286 295 303 298 302 303 294 292 281 272 270 271 268 257
233 232 231 233 236 242 250 268 273 272 269 267 267 270 273 282 284 282 286 286 289 285 283 282 275 277 284 288 288 286 290 287 288 295 298 291 289 277 272 264 265 265 257
240 238 236 237 239 242 247 264 272 273 267 269 271 272 270 278 282 290 294 293 290 288 292 297 293 296 296 294 287 286 288 288 292 286 290 276 285 272 272 260 261 259 254
245 243 245 244 244 251 253 258 264 276 277 274 273 269 274 280 288 289 296 291 291 297 302 303 306 305 302 299 295 298 287 292 291 292 293 278 276 270 265 255 257 253 247
244 246 257 317 342 304 279 257 271 268 266 266 269 274 280 284 290 290 286 283 293 306 312 317 319 317 313 313 308 305 297 291 296 295 296 281 270 261 258 250 246 241 239